Location: Albany
(35.0170°S, 117.8920°E)
Time: 02:18:15
(UTC+08:00)

Vanguard 1 - Pass Details

Date: 26 January 2021
Orbit: 649 x 3833 km, 34.2° (Epoch: 25 February)

Event Time Altitude Azimuth Distance (km) Brightness Sun altitude
Rises 23:57:05 0° 311° (NW) 4,905 - -35.9°
Reaches altitude 10° 00:01:15 10° 318° (NW) 3,418 - -36.0°
Maximum altitude 00:08:09 34° 20° (NNE) 1,488 - -36.1°
Drops below altitude 10° 00:12:47 10° 85° (E) 2,269 - -36.2°
Sets 00:15:00 0° 95° (E) 3,065 - -36.2°
